This is the latest recevied weather packets stored in our database for station/object KC4KQE. If no packets are shown the sender has not sent any weather packets the latest 10 day(s).
| Time | Temp. | Humidity | Pressure | Rain* | Wind** | Luminosity | Snow |
|---|---|---|---|---|---|---|---|
| 1777572557 | 28.89° C | 10% | 1010.2 hPa | 0 mm | - | 870 W/m² | - |
| 1777572256 | 29.44° C | 10% | 1010.2 hPa | 0 mm | - | 863 W/m² | - |
| 1777571957 | 28.89° C | 11% | 1010.3 hPa | 0 mm | - | 854 W/m² | - |
| 1777571657 | 28.89° C | 10% | 1010.3 hPa | 0 mm | - | 847 W/m² | - |
| 1777571357 | 28.89° C | 11% | 1010.4 hPa | 0 mm | - | 840 W/m² | - |
| 1777571057 | 28.33° C | 11% | 1010.5 hPa | 0 mm | - | 828 W/m² | - |
| 1777570756 | 28.33° C | 11% | 1010.6 hPa | 0 mm | - | 823 W/m² | - |
| 1777570458 | 28.89° C | 11% | 1010.6 hPa | 0 mm | - | 812 W/m² | - |
| 1777570156 | 28.33° C | 11% | 1010.6 hPa | 0 mm | - | 802 W/m² | - |
| 1777569857 | 28.33° C | 11% | 1010.6 hPa | 0 mm | - | 791 W/m² | - |
| 1777569557 | 27.78° C | 11% | 1010.7 hPa | 0 mm | - | 780 W/m² | - |
| 1777569256 | 27.78° C | 11% | 1010.7 hPa | 0 mm | - | 770 W/m² | - |
| 1777568957 | 27.78° C | 11% | 1010.7 hPa | 0 mm | - | 756 W/m² | - |
| 1777568657 | 27.78° C | 12% | 1010.7 hPa | 0 mm | - | 747 W/m² | - |
| 1777568357 | 27.22° C | 12% | 1010.7 hPa | 0 mm | - | 735 W/m² | - |
| 1777568056 | 27.22° C | 12% | 1010.8 hPa | 0 mm | - | 724 W/m² | - |
| 1777567757 | 27.22° C | 12% | 1010.8 hPa | 0 mm | - | 708 W/m² | - |
| 1777567457 | 27.22° C | 12% | 1010.7 hPa | 0 mm | - | 698 W/m² | - |
| 1777567157 | 26.67° C | 12% | 1010.7 hPa | 0 mm | - | 687 W/m² | - |
| 1777566856 | 26.67° C | 12% | 1010.8 hPa | 0 mm | - | 673 W/m² | - |
| 1777566556 | 26.11° C | 12% | 1010.8 hPa | 0 mm | - | 659 W/m² | - |
| 1777566257 | 26.11° C | 13% | 1010.9 hPa | 0 mm | - | 645 W/m² | - |
| 1777565956 | 26.11° C | 13% | 1010.8 hPa | 0 mm | - | 631 W/m² | - |
| 1777565656 | 26.11° C | 13% | 1010.9 hPa | 0 mm | - | 615 W/m² | - |
| 1777565356 | 25.56° C | 13% | 1011 hPa | 0 mm | - | 601 W/m² | - |
* Rain latest hour (hover to see other rain measurements)
** Current wind speed in m/s (hover to see current wind gust speed)